When you browse on this site, cookies collect data to enhance your experience and personalize the content and advertising you see.
Visit our Privacy Policy to learn more. By continuing to use the site, you agree to this use of cookies and data.
  • In Portugal
  • List of Countries
  • For 7 days
  • Water Temperature
  • Weather Map
  • Weather Widgets
  • user-avatar
    Login

    Hourly Weather Blizianka

    Today, 26 August, Monday

    Time Temperature Precipitation Wind Pressure Humidity
    00:00 +18°C° 0 mm 2 mps 735 mmHg 92%
    01:00 +18°C° 0 mm 2 mps 735 mmHg 91%
    02:00 +17°C° 0 mm 2 mps 735 mmHg 91%
    03:00 +18°C° 0 mm 1 mps 734 mmHg 92%
    04:00 +18°C° 0 mm 1 mps 734 mmHg 92%
    05:00 +19°C° 0 mm 1 mps 734 mmHg 89%
    06:00 +20°C° 0 mm 1 mps 735 mmHg 86%
    07:00 +21°C° 0 mm 1 mps 735 mmHg 84%
    08:00 +23°C° 0 mm 2 mps 735 mmHg 78%
    09:00 +24°C° 0 mm 2 mps 735 mmHg 72%
    10:00 +26°C° 0 mm 2 mps 735 mmHg 66%
    11:00 +27°C° 0 mm 2 mps 735 mmHg 64%
    12:00 +28°C° 0 mm 2 mps 735 mmHg 61%
    13:00 +29°C° 0 mm 2 mps 735 mmHg 59%
    14:00 +29°C° 0.2 mm 2 mps 735 mmHg 62%
    15:00 +28°C° 0.2 mm 3 mps 734 mmHg 65%
    16:00 +28°C° 0.2 mm 3 mps 734 mmHg 68%
    17:00 +26°C° 0.1 mm 2 mps 734 mmHg 73%
    18:00 +24°C° 0.1 mm 2 mps 734 mmHg 79%
    19:00 +23°C° 0.1 mm 2 mps 734 mmHg 84%
    20:00 +21°C° 0 mm 2 mps 734 mmHg 84%
    21:00 +20°C° 0 mm 2 mps 734 mmHg 84%
    22:00 +19°C° 0 mm 2 mps 734 mmHg 84%
    23:00 +19°C° 0 mm 2 mps 734 mmHg 84%

    Tomorrow, 27 August, Tuesday

    Time Temperature Precipitation Wind Pressure Humidity
    00:00 +19°C° 0 mm 2 mps 734 mmHg 85%
    01:00 +18°C° 0 mm 2 mps 734 mmHg 85%
    02:00 +18°C° 0 mm 2 mps 734 mmHg 85%
    03:00 +17°C° 0 mm 2 mps 734 mmHg 85%
    04:00 +17°C° 0 mm 2 mps 733 mmHg 85%
    05:00 +18°C° 0 mm 2 mps 734 mmHg 83%
    06:00 +19°C° 0 mm 2 mps 734 mmHg 80%
    07:00 +21°C° 0 mm 2 mps 734 mmHg 78%
    08:00 +23°C° 0 mm 2 mps 734 mmHg 72%
    09:00 +25°C° 0 mm 2 mps 734 mmHg 67%
    10:00 +27°C° 0 mm 3 mps 735 mmHg 61%
    11:00 +28°C° 0 mm 3 mps 735 mmHg 59%
    12:00 +29°C° 0 mm 3 mps 735 mmHg 57%
    13:00 +30°C° 0 mm 3 mps 735 mmHg 55%
    14:00 +29°C° 0 mm 4 mps 734 mmHg 57%
    15:00 +29°C° 0 mm 4 mps 734 mmHg 59%
    16:00 +28°C° 0 mm 4 mps 734 mmHg 62%
    17:00 +26°C° 0.1 mm 3 mps 734 mmHg 67%
    18:00 +24°C° 0.1 mm 3 mps 734 mmHg 73%
    19:00 +21°C° 0.1 mm 3 mps 733 mmHg 79%
    20:00 +21°C° 0 mm 3 mps 734 mmHg 79%
    21:00 +20°C° 0 mm 2 mps 734 mmHg 80%
    22:00 +20°C° 0 mm 2 mps 734 mmHg 81%
    23:00 +19°C° 0 mm 2 mps 734 mmHg 80%

    Day after tomorrow, 28 August, Wednesday

    Time Temperature Precipitation Wind Pressure Humidity
    00:00 +19°C° 0 mm 2 mps 734 mmHg 80%
    01:00 +18°C° 0 mm 2 mps 734 mmHg 80%
    02:00 +18°C° 0 mm 2 mps 733 mmHg 80%
    03:00 +18°C° 0 mm 2 mps 733 mmHg 79%
    04:00 +18°C° 0 mm 2 mps 733 mmHg 79%
    05:00 +19°C° 0 mm 2 mps 733 mmHg 77%
    06:00 +20°C° 0 mm 2 mps 733 mmHg 75%
    07:00 +23°C° 0 mm 2 mps 733 mmHg 73%
    08:00 +25°C° 0 mm 2 mps 733 mmHg 67%
    09:00 +27°C° 0 mm 2 mps 733 mmHg 61%
    10:00 +28°C° 0 mm 3 mps 733 mmHg 54%
    11:00 +29°C° 0 mm 3 mps 733 mmHg 52%
    12:00 +30°C° 0 mm 2 mps 733 mmHg 50%
    13:00 +31°C° 0 mm 2 mps 733 mmHg 48%
    14:00 +31°C° 0 mm 2 mps 733 mmHg 51%
    15:00 +30°C° 0 mm 2 mps 732 mmHg 54%
    16:00 +30°C° 0 mm 2 mps 732 mmHg 56%
    17:00 +27°C° 0.1 mm 2 mps 732 mmHg 63%
    18:00 +25°C° 0.1 mm 2 mps 732 mmHg 70%
    19:00 +22°C° 0.1 mm 1 mps 732 mmHg 76%
    20:00 +22°C° 0.1 mm 1 mps 732 mmHg 77%
    21:00 +21°C° 0.1 mm 1 mps 732 mmHg 79%
    22:00 +21°C° 0.1 mm 1 mps 732 mmHg 80%
    23:00 +21°C° 0 mm 1 mps 732 mmHg 79%

    29 August, Thursday

    Time Temperature Precipitation Wind Pressure Humidity
    00:00 +21°C° 0 mm 1 mps 732 mmHg 79%
    01:00 +18°C° 0 mm 0 mps 732 mmHg 78%
    02:00 +20°C° 0 mm 1 mps 732 mmHg 77%
    03:00 +20°C° 0 mm 1 mps 731 mmHg 76%
    04:00 +20°C° 0 mm 1 mps 731 mmHg 75%
    05:00 +21°C° 0.1 mm 1 mps 731 mmHg 73%
    06:00 +22°C° 0.1 mm 1 mps 731 mmHg 71%
    07:00 +23°C° 0.1 mm 1 mps 731 mmHg 69%
    08:00 +25°C° 0 mm 1 mps 732 mmHg 64%
    09:00 +26°C° 0 mm 1 mps 732 mmHg 59%
    10:00 +28°C° 0 mm 2 mps 732 mmHg 54%
    11:00 +29°C° 0 mm 2 mps 732 mmHg 52%
    12:00 +30°C° 0 mm 2 mps 732 mmHg 50%
    13:00 +31°C° 0 mm 2 mps 732 mmHg 48%
    14:00 +30°C° 0 mm 2 mps 731 mmHg 52%
    15:00 +30°C° 0 mm 2 mps 731 mmHg 55%
    16:00 +29°C° 0 mm 2 mps 731 mmHg 58%
    17:00 +27°C° 0.2 mm 3 mps 731 mmHg 65%
    18:00 +24°C° 0.2 mm 3 mps 731 mmHg 73%
    19:00 +21°C° 0.2 mm 3 mps 731 mmHg 80%
    20:00 +20°C° 0.1 mm 3 mps 731 mmHg 81%
    21:00 +19°C° 0.1 mm 2 mps 731 mmHg 81%
    22:00 +19°C° 0.1 mm 1 mps 731 mmHg 82%
    23:00 +19°C° 0 mm 1 mps 731 mmHg 83%

    30 August, Friday

    Time Temperature Precipitation Wind Pressure Humidity
    00:00 +19°C° 0 mm 1 mps 731 mmHg 83%
    01:00 +18°C° 0 mm 1 mps 731 mmHg 84%
    02:00 +18°C° 0 mm 1 mps 731 mmHg 84%
    03:00 +18°C° 0 mm 1 mps 730 mmHg 85%
    04:00 +18°C° 0 mm 1 mps 730 mmHg 85%
    05:00 +19°C° 0 mm 1 mps 731 mmHg 82%
    06:00 +19°C° 0 mm 0 mps 731 mmHg 79%
    07:00 +20°C° 0 mm 0 mps 731 mmHg 76%
    08:00 +22°C° 0 mm 0 mps 731 mmHg 69%
    09:00 +24°C° 0 mm 0 mps 732 mmHg 63%
    10:00 +26°C° 0 mm 0 mps 732 mmHg 56%
    11:00 +27°C° 0 mm 0 mps 732 mmHg 53%
    12:00 +28°C° 0 mm 0 mps 732 mmHg 51%
    13:00 +30°C° 0 mm 1 mps 732 mmHg 48%
    14:00 +30°C° 0 mm 1 mps 731 mmHg 50%
    15:00 +30°C° 0 mm 1 mps 731 mmHg 52%
    16:00 +30°C° 0 mm 1 mps 731 mmHg 54%
    17:00 +27°C° 0 mm 1 mps 731 mmHg 61%
    18:00 +25°C° 0 mm 1 mps 731 mmHg 68%
    19:00 +23°C° 0 mm 1 mps 731 mmHg 74%
    20:00 +22°C° 0.4 mm 1 mps 731 mmHg 77%
    21:00 +22°C° 0.4 mm 1 mps 731 mmHg 80%
    22:00 +21°C° 0.4 mm 1 mps 731 mmHg 84%
    23:00 +20°C° 0 mm 1 mps 731 mmHg 84%

    31 August, Saturday

    Time Temperature Precipitation Wind Pressure Humidity
    00:00 +18°C° 0 mm 0 mps 731 mmHg 85%
    01:00 +18°C° 0 mm 0 mps 731 mmHg 85%
    02:00 +17°C° 0 mm 0 mps 730 mmHg 86%
    03:00 +17°C° 0 mm 0 mps 730 mmHg 87%
    04:00 +17°C° 0 mm 0 mps 730 mmHg 87%
    05:00 +18°C° 0 mm 0 mps 730 mmHg 85%
    06:00 +19°C° 0 mm 0 mps 730 mmHg 82%
    07:00 +20°C° 0 mm 0 mps 731 mmHg 80%
    08:00 +22°C° 0 mm 0 mps 731 mmHg 73%
    09:00 +24°C° 0 mm 0 mps 731 mmHg 67%
    10:00 +26°C° 0 mm 0 mps 731 mmHg 60%
    11:00 +27°C° 0 mm 0 mps 731 mmHg 57%
    12:00 +29°C° 0 mm 1 mps 731 mmHg 53%
    13:00 +30°C° 0 mm 1 mps 731 mmHg 49%
    14:00 +30°C° 0 mm 1 mps 730 mmHg 51%
    15:00 +30°C° 0 mm 1 mps 730 mmHg 52%
    16:00 +30°C° 0 mm 1 mps 730 mmHg 54%
    17:00 +27°C° 0.7 mm 1 mps 730 mmHg 63%
    18:00 +25°C° 0.7 mm 2 mps 729 mmHg 72%
    19:00 +21°C° 0.7 mm 2 mps 729 mmHg 81%
    20:00 +21°C° 1.5 mm 2 mps 729 mmHg 81%
    21:00 +21°C° 1.5 mm 1 mps 729 mmHg 81%
    22:00 +20°C° 1.5 mm 1 mps 729 mmHg 81%
    23:00 +20°C° 0 mm 1 mps 729 mmHg 82%
    Show more